Weather History for KSPF - December, 2012

Change the Weather History Date:

Tuesday, December 11, 2012

  Actual Average (KEFC) Record (KEFC)
Temperature  
Mean Temperature 32 °F -  
Max Temperature 39 °F 43 °F 61 °F (1980)
Min Temperature 24 °F 13 °F -22 °F (1972)
Degree Days  
Heating Degree Days 34    
Moisture  
Dew Point 15 °F    
Average Humidity 52    
Maximum Humidity 74    
Minimum Humidity 39    
Precipitation  
Precipitation 0.00 in - - ()
Sea Level Pressure  
Sea Level Pressure 29.69 in    
Wind  
Wind Speed 14 mph (WSW)    
Max Wind Speed 23 mph    
Max Gust Speed 31 mph    
Visibility 10 miles    
Events      
Averages and records for this station are not official NWS values.
T = Trace of Precipitation, MM = Missing Value Source: NWS Daily Summary

Daily Weather History Graph

Daily Weather History Graph

Search for Another Location

Airport or City:

Trip Planner

Search our weather history database for the weather conditions in past years. The results will help you decide how hot, cold, wet, or windy it might be!

Date:

Astronomy

Dec. 11, 2012 Rise Set
Actual Time 8:21 AM CST 5:15 PM CST
Civil Twilight 7:48 AM CST 5:48 PM CST
Nautical Twilight 7:11 AM CST 6:25 PM CST
Astronomical Twilight 6:36 AM CST 7:00 PM CST
Moon 6:17 AM CST (12/11) 3:58 PM CST (12/11)
Length of Visible Light 10h 00m
Length of Day
8h 53m
Waning Crescent, 4% of the Moon is Illuminated
Dec 11
Waning Crescent
Dec 13
New
Dec 19
First Quarter
Dec 28
Full
Jan 4
Last Quarter

Hourly Weather History & Observations

Time (CST) Temp. Windchill Dew Point Humidity Pressure Visibility Wind Dir Wind Speed Gust Speed Precip Events Conditions
12:15 AM 26.6 °F 13.8 °F 19.4 °F 74% 29.83 in 10.0 mi West 17.3 mph 23.0 mph N/A   Overcast
12:35 AM 26.6 °F 13.4 °F 19.4 °F 74% 29.83 in 10.0 mi WNW 18.4 mph 23.0 mph N/A   Mostly Cloudy
12:55 AM 26.6 °F 15.2 °F 19.4 °F 74% 29.83 in 10.0 mi West 13.8 mph 20.7 mph N/A   Overcast
1:15 AM 26.6 °F 15.2 °F 19.4 °F 74% 29.83 in 10.0 mi West 13.8 mph 18.4 mph N/A   Overcast
1:35 AM 26.6 °F 14.7 °F 17.6 °F 69% 29.82 in 10.0 mi West 15.0 mph 19.6 mph N/A   Overcast
1:55 AM 26.6 °F 14.3 °F 17.6 °F 69% 29.82 in 10.0 mi West 16.1 mph 20.7 mph N/A   Overcast
2:15 AM 26.6 °F 15.7 °F 17.6 °F 69% 29.82 in 10.0 mi West 12.7 mph 24.2 mph N/A   Mostly Cloudy
2:35 AM 26.6 °F 14.7 °F 17.6 °F 69% 29.82 in 10.0 mi West 15.0 mph 23.0 mph N/A   Overcast
2:55 AM 26.6 °F 14.3 °F 17.6 °F 69% 29.82 in 10.0 mi West 16.1 mph 24.2 mph N/A   Overcast
3:15 AM 26.6 °F 15.2 °F 17.6 °F 69% 29.82 in 10.0 mi West 13.8 mph - N/A   Mostly Cloudy
3:55 AM 24.8 °F 13.4 °F 15.8 °F 69% 29.81 in 10.0 mi West 12.7 mph 17.3 mph N/A   Partly Cloudy
4:15 AM 24.8 °F 12.9 °F 15.8 °F 69% 29.81 in 10.0 mi West 13.8 mph 19.6 mph N/A   Clear
4:35 AM 24.8 °F 13.4 °F 15.8 °F 69% 29.80 in 10.0 mi West 12.7 mph - N/A   Clear
4:55 AM 24.8 °F 14.6 °F 14.0 °F 64% 29.80 in 10.0 mi West 10.4 mph - N/A   Clear
5:15 AM 26.6 °F 15.7 °F 14.0 °F 59% 29.80 in 10.0 mi West 12.7 mph - N/A   Clear
5:35 AM 24.8 °F 13.4 °F 14.0 °F 64% 29.79 in 10.0 mi West 12.7 mph 17.3 mph N/A   Scattered Clouds
5:55 AM 24.8 °F 13.4 °F 14.0 °F 64% 29.79 in 10.0 mi West 12.7 mph - N/A   Overcast
6:15 AM 24.8 °F 13.4 °F 14.0 °F 64% 29.79 in 10.0 mi WSW 12.7 mph 17.3 mph N/A   Mostly Cloudy
6:35 AM 24.8 °F 16.1 °F 14.0 °F 64% 29.79 in 10.0 mi West 8.1 mph - N/A   Scattered Clouds
6:55 AM 24.8 °F 14.0 °F 14.0 °F 64% 29.79 in 10.0 mi WSW 11.5 mph 16.1 mph N/A   Clear
7:15 AM 24.8 °F 14.0 °F 14.0 °F 64% 29.78 in 10.0 mi West 11.5 mph 18.4 mph N/A   Clear
7:55 AM 24.8 °F 15.3 °F 12.2 °F 59% 29.78 in 10.0 mi WNW 9.2 mph - N/A   Clear
8:15 AM 24.8 °F 16.1 °F 12.2 °F 59% 29.77 in 10.0 mi West 8.1 mph - N/A   Clear
8:35 AM 26.6 °F 17.5 °F 12.2 °F 55% 29.77 in 10.0 mi West 9.2 mph - N/A   Clear
8:55 AM 26.6 °F 18.2 °F 12.2 °F 55% 29.77 in 10.0 mi West 8.1 mph - N/A   Clear
9:15 AM 26.6 °F 16.8 °F 10.4 °F 51% 29.77 in 10.0 mi West 10.4 mph - N/A   Clear
9:35 AM 26.6 °F 16.8 °F 10.4 °F 51% 29.76 in 10.0 mi WSW 10.4 mph - N/A   Clear
9:55 AM 28.4 °F 18.5 °F 10.4 °F 47% 29.76 in 10.0 mi West 11.5 mph - N/A   Clear
10:15 AM 28.4 °F 21.2 °F 10.4 °F 47% 29.76 in 10.0 mi West 6.9 mph - N/A   Clear
10:35 AM 30.2 °F 19.8 °F 12.2 °F 47% 29.75 in 10.0 mi SW 13.8 mph 20.7 mph N/A   Clear
10:55 AM 32.0 °F 22.1 °F 12.2 °F 44% 29.75 in 10.0 mi SW 13.8 mph 23.0 mph N/A   Clear
11:15 AM 32.0 °F 20.1 °F 12.2 °F 44% 29.74 in 10.0 mi SW 19.6 mph 24.2 mph N/A   Clear
11:55 AM 32.0 °F 21.6 °F 14.0 °F 48% 29.72 in 10.0 mi WSW 15.0 mph 21.9 mph N/A   Clear
12:15 PM 32.0 °F 21.2 °F 12.2 °F 44% 29.71 in 10.0 mi WSW 16.1 mph 24.2 mph N/A   Clear
12:35 PM 33.8 °F 25.3 °F 12.2 °F 41% 29.70 in 10.0 mi WSW 11.5 mph 19.6 mph N/A   Clear
12:55 PM 33.8 °F 23.2 °F 14.0 °F 44% 29.69 in 10.0 mi SW 17.3 mph 21.9 mph N/A   Clear
1:15 PM 35.6 °F 25.9 °F 14.0 °F 41% 29.68 in 10.0 mi SW 16.1 mph 25.3 mph N/A   Clear
1:35 PM 35.6 °F 25.9 °F 14.0 °F 41% 29.67 in 10.0 mi WSW 16.1 mph 21.9 mph N/A   Clear
1:55 PM 35.6 °F 25.9 °F 14.0 °F 41% 29.66 in 10.0 mi WSW 16.1 mph 21.9 mph N/A   Partly Cloudy
2:15 PM 35.6 °F 25.2 °F 15.8 °F 44% 29.64 in 10.0 mi SW 18.4 mph 25.3 mph N/A   Mostly Cloudy
2:55 PM 35.6 °F 26.6 °F 15.8 °F 44% 29.62 in 10.0 mi SW 13.8 mph 21.9 mph N/A   Overcast
3:15 PM 35.6 °F 26.6 °F 14.0 °F 41% 29.62 in 10.0 mi SW 13.8 mph 24.2 mph N/A   Overcast
3:35 PM 37.4 °F 28.2 °F 15.8 °F 41% 29.61 in 10.0 mi SW 16.1 mph 24.2 mph N/A   Overcast
3:55 PM 37.4 °F 27.8 °F 15.8 °F 41% 29.60 in 10.0 mi SW 17.3 mph 25.3 mph N/A   Overcast
4:15 PM 37.4 °F 28.5 °F 15.8 °F 41% 29.60 in 10.0 mi SW 15.0 mph 24.2 mph N/A   Overcast
4:35 PM 37.4 °F 28.2 °F 15.8 °F 41% 29.60 in 10.0 mi SW 16.1 mph 21.9 mph N/A   Overcast
4:55 PM 37.4 °F 28.9 °F 15.8 °F 41% 29.60 in 10.0 mi SW 13.8 mph 20.7 mph N/A   Overcast
5:15 PM 37.4 °F 26.6 °F 15.8 °F 41% 29.59 in 10.0 mi SW 21.9 mph 29.9 mph N/A   Scattered Clouds
5:35 PM 37.4 °F 26.4 °F 15.8 °F 41% 29.58 in 10.0 mi SSW 23.0 mph 31.1 mph N/A   Scattered Clouds
5:55 PM 37.4 °F 27.8 °F 15.8 °F 41% 29.58 in 10.0 mi SW 17.3 mph - N/A   Mostly Cloudy
6:15 PM 37.4 °F 27.5 °F 15.8 °F 41% 29.58 in 10.0 mi SW 18.4 mph 26.5 mph N/A   Partly Cloudy
6:35 PM 37.4 °F 27.8 °F 15.8 °F 41% 29.58 in 10.0 mi SW 17.3 mph 26.5 mph N/A   Clear
6:55 PM 37.4 °F 26.4 °F 15.8 °F 41% 29.57 in 10.0 mi SW 23.0 mph 31.1 mph N/A   Scattered Clouds
7:15 PM 37.4 °F 26.9 °F 15.8 °F 41% 29.56 in 10.0 mi SW 20.7 mph 25.3 mph N/A   Partly Cloudy
7:35 PM 37.4 °F 28.2 °F 17.6 °F 45% 29.56 in 10.0 mi SW 16.1 mph - N/A   Clear
7:55 PM 37.4 °F 27.5 °F 15.8 °F 41% 29.56 in 10.0 mi SW 18.4 mph 27.6 mph N/A   Clear
8:15 PM 39.2 °F 29.3 °F 15.8 °F 39% 29.56 in 10.0 mi WSW 20.7 mph 28.8 mph N/A   Clear
8:35 PM 39.2 °F 29.0 °F 15.8 °F 39% 29.56 in 10.0 mi SW 21.9 mph 29.9 mph N/A   Clear
8:55 PM 39.2 °F 29.3 °F 17.6 °F 42% 29.56 in 10.0 mi SW 20.7 mph 26.5 mph N/A   Clear
9:15 PM 39.2 °F 29.3 °F 17.6 °F 42% 29.56 in 10.0 mi SW 20.7 mph 27.6 mph N/A   Clear
9:35 PM 39.2 °F 30.2 °F 17.6 °F 42% 29.56 in 10.0 mi SW 17.3 mph 24.2 mph N/A   Clear
9:55 PM 39.2 °F 30.8 °F 17.6 °F 42% 29.56 in 10.0 mi WSW 15.0 mph 23.0 mph N/A   Clear
10:15 PM 39.2 °F 33.6 °F 17.6 °F 42% 29.57 in 10.0 mi WSW 8.1 mph - N/A   Clear
10:35 PM 35.6 °F - 17.6 °F 48% 29.57 in 10.0 mi Calm Calm - N/A   Partly Cloudy
10:55 PM 35.6 °F 32.8 °F 15.8 °F 44% 29.56 in 10.0 mi North 3.5 mph - N/A   Partly Cloudy
11:15 PM 35.6 °F 30.7 °F 15.8 °F 44% 29.57 in 10.0 mi North 5.8 mph - N/A   Partly Cloudy
11:35 PM 35.6 °F 32.8 °F 17.6 °F 48% 29.57 in 10.0 mi NNW 3.5 mph - N/A   Mostly Cloudy
11:55 PM 37.4 °F 34.9 °F 17.6 °F 45% 29.58 in 10.0 mi WNW 3.5 mph - N/A   Mostly Cloudy